Location: Ku?niki
(51.4449°N, 17.8974°E)
Time: 20:30:43
(UTC+00:00)

DX 1 - Pass Details

Date: 04 July 2022
Orbit: 617 x 629 km, 98.4° (Epoch: 08 August)

Event Time Altitude Azimuth Distance (km) Brightness Sun altitude
Rises 21:52:48 0° 2° (N) 2,934 ? -14.6°
Reaches altitude 10° 21:55:53 10° 338° (NNW) 2,019 ? -14.7°
Maximum altitude 21:58:14 15° 306° (NW) 1,732 ? -14.8°
Drops below altitude 10° 22:00:36 10° 273° (W) 2,009 ? -14.9°
Sets 22:03:39 0° 249° (WSW) 2,908 ? -15.0°
